Time,TemperatureF,DewpointF,PressureIn,WindDirection,WindDirectionDegrees,WindSpeedMPH,WindSpeedGustMPH,Humidity,HourlyPrecipIn,Conditions,Clouds,dailyrainin,SolarRadiationWatts/m^2,SoftwareType,DateUTC
2013-02-20 00:03:00,38.3,38.3,30.12,ESE,116,2.3,2.3,100,0.00,,,0.00,0.0,WeatherDisplay:10.37,2013-02-20 00:03:00,
2013-02-20 00:37:00,37.0,37.0,30.13,ESE,114,0.0,0.0,100,0.00,,,0.00,0.0,WeatherDisplay:10.37,2013-02-20 00:37:00,
2013-02-20 00:42:00,36.8,36.8,30.13,ESE,114,0.0,0.0,100,0.00,,,0.00,0.0,WeatherDisplay:10.37,2013-02-20 00:42:00,
2013-02-20 00:47:00,36.5,36.5,30.13,ESE,113,0.0,0.0,100,0.00,,,0.00,0.0,WeatherDisplay:10.37,2013-02-20 00:47:00,
2013-02-20 00:52:00,36.0,36.0,30.13,ESE,119,0.0,0.0,100,0.00,,,0.00,0.0,WeatherDisplay:10.37,2013-02-20 00:52:00,
2013-02-20 00:57:00,35.9,35.9,30.13,ESE,114,1.2,0.0,100,0.00,,,0.00,0.0,WeatherDisplay:10.37,2013-02-20 00:57:00,
2013-02-20 01:02:00,35.6,35.6,30.13,ESE,117,0.0,0.0,100,0.00,,,0.00,0.0,WeatherDisplay:10.37,2013-02-20 01:02:00,
2013-02-20 01:07:00,35.6,35.6,30.13,ESE,119,0.0,0.0,100,0.00,,,0.00,0.0,WeatherDisplay:10.37,2013-02-20 01:07:00,
2013-02-20 01:13:00,35.5,35.5,30.13,ESE,121,1.2,1.2,100,0.00,,,0.00,0.0,WeatherDisplay:10.37,2013-02-20 01:13:00,
2013-02-20 01:18:00,35.5,35.5,30.13,ESE,114,0.0,0.0,100,0.00,,,0.00,0.0,WeatherDisplay:10.37,2013-02-20 01:18:00,
2013-02-20 01:23:00,35.5,35.5,30.13,ESE,121,2.3,2.3,100,0.00,,,0.00,0.0,WeatherDisplay:10.37,2013-02-20 01:23:00,
2013-02-20 01:28:00,35.3,35.3,30.13,ESE,121,2.0,2.0,100,0.00,,,0.00,0.0,WeatherDisplay:10.37,2013-02-20 01:28:00,
2013-02-20 01:33:00,35.3,35.3,30.14,ESE,119,0.0,0.4,100,0.00,,,0.00,0.0,WeatherDisplay:10.37,2013-02-20 01:33:00,
2013-02-20 01:38:00,35.2,35.2,30.14,ESE,116,0.0,0.0,100,0.00,,,0.00,0.0,WeatherDisplay:10.37,2013-02-20 01:38:00,
2013-02-20 01:43:00,35.3,35.3,30.14,ESE,116,0.0,0.0,100,0.00,,,0.00,0.0,WeatherDisplay:10.37,2013-02-20 01:43:00,
2013-02-20 01:48:00,35.5,35.5,30.14,ESE,119,0.0,0.0,100,0.00,,,0.00,0.0,WeatherDisplay:10.37,2013-02-20 01:48:00,
2013-02-20 01:53:00,35.6,35.6,30.14,ESE,120,0.0,0.0,100,0.00,,,0.00,0.0,WeatherDisplay:10.37,2013-02-20 01:53:00,
2013-02-20 01:59:00,35.6,35.6,30.14,ESE,120,0.0,0.0,100,0.00,,,0.00,0.0,WeatherDisplay:10.37,2013-02-20 01:59:00,
2013-02-20 02:04:00,35.6,35.6,30.14,ESE,117,2.3,2.3,100,0.00,,,0.00,0.0,WeatherDisplay:10.37,2013-02-20 02:04:00,
2013-02-20 02:09:00,36.0,36.0,30.15,ESE,117,2.3,2.3,100,0.00,,,0.00,0.0,WeatherDisplay:10.37,2013-02-20 02:09:00,
2013-02-20 02:14:00,36.0,36.0,30.15,ESE,120,0.0,0.0,100,0.00,,,0.00,0.0,WeatherDisplay:10.37,2013-02-20 02:14:00,
2013-02-20 02:19:00,36.2,36.2,30.15,ESE,114,0.0,0.0,100,0.00,,,0.00,0.0,WeatherDisplay:10.37,2013-02-20 02:19:00,
2013-02-20 02:24:00,36.2,36.2,30.15,ESE,116,0.0,0.0,100,0.00,,,0.00,0.0,WeatherDisplay:10.37,2013-02-20 02:24:00,
2013-02-20 02:29:00,36.3,36.3,30.15,ESE,116,0.0,0.0,100,0.00,,,0.00,0.0,WeatherDisplay:10.37,2013-02-20 02:29:00,
2013-02-20 02:34:00,36.5,36.5,30.15,ESE,116,0.0,0.0,100,0.00,,,0.00,0.0,WeatherDisplay:10.37,2013-02-20 02:34:00,
2013-02-20 02:39:00,36.6,36.6,30.15,ESE,116,0.0,0.0,100,0.00,,,0.00,0.0,WeatherDisplay:10.37,2013-02-20 02:39:00,
2013-02-20 02:45:00,36.6,36.6,30.15,ESE,118,0.0,0.0,100,0.00,,,0.00,0.0,WeatherDisplay:10.37,2013-02-20 02:45:00,
2013-02-20 02:50:00,36.6,36.6,30.15,ESE,120,0.0,0.0,100,0.00,,,0.00,0.0,WeatherDisplay:10.37,2013-02-20 02:50:00,
2013-02-20 02:55:00,36.8,36.8,30.15,ESE,121,0.0,0.0,100,0.00,,,0.00,0.0,WeatherDisplay:10.37,2013-02-20 02:55:00,
2013-02-20 03:00:00,36.8,36.8,30.15,ESE,117,0.0,0.0,100,0.00,,,0.00,0.0,WeatherDisplay:10.37,2013-02-20 03:00:00,
2013-02-20 03:05:00,36.8,36.8,30.15,ESE,116,0.0,0.0,100,0.00,,,0.00,0.0,WeatherDisplay:10.37,2013-02-20 03:05:00,
2013-02-20 03:10:00,36.8,36.8,30.15,ESE,121,0.0,0.0,100,0.00,,,0.00,0.0,WeatherDisplay:10.37,2013-02-20 03:10:00,
2013-02-20 03:16:00,36.8,36.8,30.15,ESE,119,0.0,0.0,100,0.00,,,0.00,0.0,WeatherDisplay:10.37,2013-02-20 03:16:00,
2013-02-20 03:21:00,36.9,36.9,30.16,ESE,119,0.0,0.0,100,0.00,,,0.00,0.0,WeatherDisplay:10.37,2013-02-20 03:21:00,
2013-02-20 03:26:00,36.9,36.9,30.16,ESE,119,0.0,0.4,100,0.00,,,0.00,0.0,WeatherDisplay:10.37,2013-02-20 03:26:00,
2013-02-20 03:31:00,37.0,37.0,30.15,ESE,116,1.2,0.0,100,0.00,,,0.00,0.0,WeatherDisplay:10.37,2013-02-20 03:31:00,
2013-02-20 03:36:00,37.0,37.0,30.15,ESE,117,0.0,0.0,100,0.00,,,0.00,0.0,WeatherDisplay:10.37,2013-02-20 03:36:00,
2013-02-20 03:41:00,37.2,37.2,30.15,ESE,117,2.3,2.3,100,0.00,,,0.00,0.0,WeatherDisplay:10.37,2013-02-20 03:41:00,
2013-02-20 03:47:00,37.2,37.2,30.15,ESE,119,3.5,3.5,100,0.00,,,0.00,0.0,WeatherDisplay:10.37,2013-02-20 03:47:00,
2013-02-20 03:52:00,37.3,37.3,30.15,ESE,116,2.3,0.0,100,0.00,,,0.00,0.0,WeatherDisplay:10.37,2013-02-20 03:52:00,
2013-02-20 03:57:00,37.5,37.5,30.15,ESE,120,0.0,0.0,100,0.00,,,0.00,0.0,WeatherDisplay:10.37,2013-02-20 03:57:00,
2013-02-20 04:02:00,37.5,37.5,30.15,ESE,114,0.0,0.0,100,0.00,,,0.00,0.0,WeatherDisplay:10.37,2013-02-20 04:02:00,
2013-02-20 04:08:00,37.5,37.5,30.16,ESE,116,0.0,0.0,100,0.00,,,0.00,0.0,WeatherDisplay:10.37,2013-02-20 04:08:00,
2013-02-20 04:13:00,37.5,37.5,30.16,ESE,114,0.0,0.0,100,0.00,,,0.00,0.0,WeatherDisplay:10.37,2013-02-20 04:13:00,
2013-02-20 04:18:00,37.5,37.5,30.16,ESE,123,0.0,0.0,100,0.00,,,0.00,0.0,WeatherDisplay:10.37,2013-02-20 04:18:00,
2013-02-20 04:23:00,37.5,37.5,30.16,ESE,120,0.0,0.0,100,0.00,,,0.00,0.0,WeatherDisplay:10.37,2013-02-20 04:23:00,
2013-02-20 04:28:00,37.6,37.6,30.16,ESE,114,0.0,0.0,100,0.00,,,0.00,0.0,WeatherDisplay:10.37,2013-02-20 04:28:00,
2013-02-20 04:33:00,37.6,37.6,30.16,ESE,123,1.2,0.0,100,0.00,,,0.00,0.0,WeatherDisplay:10.37,2013-02-20 04:33:00,
2013-02-20 04:38:00,37.6,37.6,30.16,ESE,117,2.3,2.3,100,0.00,,,0.00,0.0,WeatherDisplay:10.37,2013-02-20 04:38:00,
2013-02-20 04:44:00,37.6,37.6,30.16,ESE,117,3.0,3.0,100,0.00,,,0.00,0.0,WeatherDisplay:10.37,2013-02-20 04:44:00,
2013-02-20 04:49:00,37.8,37.8,30.16,ESE,104,2.3,2.3,100,0.00,,,0.00,0.0,WeatherDisplay:10.37,2013-02-20 04:49:00,
2013-02-20 04:54:00,37.8,37.8,30.16,East,99,2.3,2.3,100,0.00,,,0.00,0.0,WeatherDisplay:10.37,2013-02-20 04:54:00,
2013-02-20 04:59:00,37.8,37.8,30.16,East,100,0.0,0.0,100,0.00,,,0.00,0.0,WeatherDisplay:10.37,2013-02-20 04:59:00,
2013-02-20 05:00:00,37.8,37.8,30.16,ESE,103,0.0,0.0,100,0.00,,,0.00,0.0,WeatherDisplay:10.37,2013-02-20 05:00:00,
2013-02-20 05:02:00,37.8,37.8,30.16,ESE,103,2.3,2.3,100,0.00,,,0.00,0.0,WeatherDisplay:10.37,2013-02-20 05:02:00,
2013-02-20 05:08:00,37.8,37.8,30.16,ESE,106,1.2,1.2,100,0.00,,,0.00,0.0,WeatherDisplay:10.37,2013-02-20 05:08:00,
2013-02-20 05:13:00,37.6,37.6,30.16,East,99,2.3,2.3,100,0.00,,,0.00,0.0,WeatherDisplay:10.37,2013-02-20 05:13:00,
2013-02-20 05:18:00,37.6,37.6,30.16,ESE,103,0.0,0.0,100,0.00,,,0.00,0.0,WeatherDisplay:10.37,2013-02-20 05:18:00,
2013-02-20 05:23:00,37.6,37.6,30.16,ESE,103,0.0,0.0,100,0.00,,,0.00,0.0,WeatherDisplay:10.37,2013-02-20 05:23:00,
2013-02-20 05:28:00,37.6,37.6,30.16,ESE,103,0.0,0.0,100,0.00,,,0.00,0.0,WeatherDisplay:10.37,2013-02-20 05:28:00,
2013-02-20 05:33:00,37.6,37.6,30.16,ESE,102,0.0,0.0,100,0.00,,,0.00,0.0,WeatherDisplay:10.37,2013-02-20 05:33:00,
2013-02-20 05:38:00,37.6,37.6,30.16,ESE,103,0.0,0.0,100,0.00,,,0.00,0.0,WeatherDisplay:10.37,2013-02-20 05:38:00,
2013-02-20 05:43:00,37.6,37.6,30.16,ESE,103,0.0,0.0,100,0.00,,,0.00,0.0,WeatherDisplay:10.37,2013-02-20 05:43:00,
2013-02-20 05:48:00,37.6,37.6,30.16,East,99,0.0,0.0,100,0.00,,,0.00,0.0,WeatherDisplay:10.37,2013-02-20 05:48:00,
2013-02-20 05:53:00,37.6,37.6,30.16,ESE,103,0.0,0.0,100,0.00,,,0.00,0.0,WeatherDisplay:10.37,2013-02-20 05:53:00,
2013-02-20 05:59:00,37.6,37.6,30.16,East,99,0.0,0.0,100,0.00,,,0.00,0.0,WeatherDisplay:10.37,2013-02-20 05:59:00,
2013-02-20 06:04:00,37.5,37.5,30.16,ESE,104,0.0,0.0,100,0.00,,,0.00,0.0,WeatherDisplay:10.37,2013-02-20 06:04:00,
2013-02-20 06:09:00,37.5,37.5,30.16,East,97,0.0,0.0,100,0.00,,,0.00,0.0,WeatherDisplay:10.37,2013-02-20 06:09:00,
2013-02-20 06:14:00,37.6,37.6,30.16,East,99,0.0,0.0,100,0.00,,,0.00,0.0,WeatherDisplay:10.37,2013-02-20 06:14:00,
2013-02-20 06:20:00,37.6,37.6,30.16,East,97,0.0,0.0,100,0.00,,,0.00,0.0,WeatherDisplay:10.37,2013-02-20 06:20:00,
2013-02-20 06:25:00,37.8,37.8,30.16,ESE,104,0.0,0.0,100,0.00,,,0.00,0.0,WeatherDisplay:10.37,2013-02-20 06:25:00,
2013-02-20 06:30:00,37.8,37.8,30.16,East,100,0.0,2.0,100,0.00,,,0.00,0.0,WeatherDisplay:10.37,2013-02-20 06:30:00,
2013-02-20 06:35:00,37.9,37.9,30.17,ESE,103,0.0,0.0,100,0.00,,,0.00,0.0,WeatherDisplay:10.37,2013-02-20 06:35:00,
2013-02-20 06:40:00,37.9,37.9,30.17,ESE,103,0.0,0.0,100,0.00,,,0.00,0.0,WeatherDisplay:10.37,2013-02-20 06:40:00,
2013-02-20 06:46:00,38.0,38.0,30.17,ESE,102,1.2,1.2,100,0.00,,,0.00,0.0,WeatherDisplay:10.37,2013-02-20 06:46:00,
2013-02-20 06:51:00,38.2,38.2,30.17,East,97,0.0,0.0,100,0.00,,,0.00,0.0,WeatherDisplay:10.37,2013-02-20 06:51:00,
2013-02-20 06:56:00,38.2,38.2,30.17,ESE,103,0.0,0.0,100,0.00,,,0.00,0.0,WeatherDisplay:10.37,2013-02-20 06:56:00,
2013-02-20 07:01:00,38.3,38.3,30.17,East,97,0.0,0.0,100,0.00,OVC,,0.00,0.0,WeatherDisplay:10.37,2013-02-20 07:01:00,
2013-02-20 07:06:00,38.6,38.6,30.17,SE,126,1.2,0.0,100,0.00,OVC,,0.00,0.0,WeatherDisplay:10.37,2013-02-20 07:06:00,
2013-02-20 07:11:00,38.9,38.9,30.17,ESE,123,1.2,1.2,100,0.00,OVC,,0.00,0.0,WeatherDisplay:10.37,2013-02-20 07:11:00,
2013-02-20 07:16:00,39.1,39.1,30.17,SSE,162,3.5,3.5,100,0.00,OVC,,0.00,0.0,WeatherDisplay:10.37,2013-02-20 07:16:00,
2013-02-20 07:21:00,39.3,39.3,30.18,SSE,167,2.3,2.3,100,0.00,OVC,,0.00,0.0,WeatherDisplay:10.37,2013-02-20 07:21:00,
2013-02-20 07:26:00,39.6,39.6,30.18,SE,143,3.5,3.5,100,0.00,OVC,,0.00,0.0,WeatherDisplay:10.37,2013-02-20 07:26:00,
2013-02-20 07:31:00,40.2,40.2,30.18,SSW,196,8.1,8.1,100,0.00,OVC,,0.00,0.0,WeatherDisplay:10.37,2013-02-20 07:31:00,
2013-02-20 07:36:00,40.3,40.3,30.18,South,179,2.3,2.3,100,0.00,OVC,,0.00,5.0,WeatherDisplay:10.37,2013-02-20 07:36:00,
2013-02-20 07:41:00,40.5,40.5,30.18,SSE,150,2.3,2.3,100,0.00,OVC,,0.00,5.0,WeatherDisplay:10.37,2013-02-20 07:41:00,
2013-02-20 07:47:00,40.5,40.5,30.18,SE,144,1.2,1.2,100,0.00,FEW,,0.00,5.0,WeatherDisplay:10.37,2013-02-20 07:47:00,
2013-02-20 07:52:00,40.5,40.5,30.18,SE,141,1.2,1.2,100,0.00,BKN,,0.00,7.0,WeatherDisplay:10.37,2013-02-20 07:52:00,
2013-02-20 07:57:00,40.5,40.5,30.18,SE,145,3.5,3.5,100,0.00,OVC,,0.00,7.0,WeatherDisplay:10.37,2013-02-20 07:57:00,
2013-02-20 08:05:00,40.5,40.5,30.18,SE,136,3.5,3.5,100,0.00,OVC,,0.00,11.0,WeatherDisplay:10.37,2013-02-20 08:05:00,
2013-02-20 08:10:00,40.6,40.6,30.18,SE,137,5.0,5.0,100,0.00,OVC,,0.00,12.0,WeatherDisplay:10.37,2013-02-20 08:10:00,
2013-02-20 08:15:00,40.8,40.8,30.18,SE,144,2.0,5.0,100,0.00,OVC,,0.00,14.0,WeatherDisplay:10.37,2013-02-20 08:15:00,
2013-02-20 08:20:00,40.8,40.8,30.18,SSE,154,5.8,5.8,100,0.00,OVC,,0.00,18.0,WeatherDisplay:10.37,2013-02-20 08:20:00,
2013-02-20 08:25:00,40.9,40.9,30.18,ESE,123,5.8,5.8,100,0.00,OVC,,0.00,18.0,WeatherDisplay:10.37,2013-02-20 08:25:00,
2013-02-20 08:30:00,41.1,41.1,30.19,SE,140,3.0,7.0,100,0.00,OVC,,0.00,19.0,WeatherDisplay:10.37,2013-02-20 08:30:00,
2013-02-20 08:35:00,41.2,41.2,30.19,SE,131,8.0,8.0,100,0.00,OVC,,0.00,21.0,WeatherDisplay:10.37,2013-02-20 08:35:00,
2013-02-20 08:40:00,41.3,41.3,30.19,SSE,161,6.0,6.0,100,0.00,OVC,,0.00,21.0,WeatherDisplay:10.37,2013-02-20 08:40:00,
2013-02-20 08:45:00,41.3,41.3,30.19,SE,130,6.0,6.0,100,0.00,OVC,,0.00,23.0,WeatherDisplay:10.37,2013-02-20 08:45:00,
2013-02-20 08:50:00,41.5,41.5,30.19,SE,131,4.6,4.6,100,0.00,OVC,,0.00,26.0,WeatherDisplay:10.37,2013-02-20 08:50:00,
2013-02-20 08:55:00,41.6,41.6,30.19,SE,141,5.8,5.8,100,0.00,OVC,,0.00,25.0,WeatherDisplay:10.37,2013-02-20 08:55:00,
2013-02-20 09:01:00,41.6,41.6,30.19,SSE,157,5.8,5.8,100,0.00,OVC,,0.00,28.0,WeatherDisplay:10.37,2013-02-20 09:01:00,
2013-02-20 09:06:00,41.8,41.8,30.19,SE,141,5.8,5.8,100,0.00,OVC,,0.00,26.0,WeatherDisplay:10.37,2013-02-20 09:06:00,
2013-02-20 09:11:00,41.9,41.9,30.19,SE,127,3.5,3.5,100,0.00,OVC,,0.00,30.0,WeatherDisplay:10.37,2013-02-20 09:11:00,
2013-02-20 09:16:00,41.9,41.9,30.19,SE,130,5.8,5.8,100,0.00,OVC,,0.00,33.0,WeatherDisplay:10.37,2013-02-20 09:16:00,
2013-02-20 09:22:00,42.1,42.1,30.19,SSE,160,4.6,4.6,100,0.00,OVC,,0.00,35.0,WeatherDisplay:10.37,2013-02-20 09:22:00,
2013-02-20 09:27:00,42.1,42.1,30.20,SSE,148,6.9,6.9,100,0.00,OVC,,0.00,40.0,WeatherDisplay:10.37,2013-02-20 09:27:00,
2013-02-20 09:32:00,42.2,42.2,30.20,SE,138,5.8,5.8,100,0.00,OVC,,0.00,44.0,WeatherDisplay:10.37,2013-02-20 09:32:00,
2013-02-20 09:37:00,42.3,42.3,30.20,SE,138,6.0,6.0,100,0.00,OVC,,0.00,48.0,WeatherDisplay:10.37,2013-02-20 09:37:00,
2013-02-20 09:42:00,42.5,42.5,30.20,SE,138,5.8,5.8,100,0.00,OVC,,0.00,46.0,WeatherDisplay:10.37,2013-02-20 09:42:00,
2013-02-20 09:47:00,42.5,42.5,30.20,South,176,5.8,5.8,100,0.00,OVC,,0.00,48.0,WeatherDisplay:10.37,2013-02-20 09:47:00,
2013-02-20 09:52:00,42.6,42.6,30.20,SE,138,3.5,3.5,100,0.00,OVC,,0.00,44.0,WeatherDisplay:10.37,2013-02-20 09:52:00,
2013-02-20 09:57:00,42.6,42.6,30.21,SE,136,3.5,3.5,100,0.00,OVC,,0.00,44.0,WeatherDisplay:10.37,2013-02-20 09:57:00,
2013-02-20 10:02:00,42.8,42.8,30.20,SSE,165,4.6,4.6,100,0.00,OVC,,0.00,48.0,WeatherDisplay:10.37,2013-02-20 10:02:00,
2013-02-20 10:08:00,42.8,42.8,30.21,SE,144,3.5,3.5,100,0.00,OVC,,0.00,51.0,WeatherDisplay:10.37,2013-02-20 10:08:00,
2013-02-20 10:13:00,42.9,42.9,30.21,SE,131,8.0,8.0,100,0.00,OVC,,0.00,55.0,WeatherDisplay:10.37,2013-02-20 10:13:00,
2013-02-20 10:18:00,42.9,42.9,30.21,South,191,3.5,3.5,100,0.00,OVC,,0.00,53.0,WeatherDisplay:10.37,2013-02-20 10:18:00,
2013-02-20 10:23:00,43.1,43.1,30.21,South,179,4.6,4.6,100,0.00,OVC,,0.00,55.0,WeatherDisplay:10.37,2013-02-20 10:23:00,
2013-02-20 10:28:00,43.1,43.1,30.21,ESE,123,3.5,3.5,100,0.00,OVC,,0.00,55.0,WeatherDisplay:10.37,2013-02-20 10:28:00,
2013-02-20 10:33:00,43.2,43.2,30.21,South,188,4.6,4.6,100,0.00,OVC,,0.00,55.0,WeatherDisplay:10.37,2013-02-20 10:33:00,
2013-02-20 10:38:00,43.2,43.2,30.21,SE,138,4.0,4.0,100,0.00,OVC,,0.00,56.0,WeatherDisplay:10.37,2013-02-20 10:38:00,
2013-02-20 10:43:00,43.2,43.2,30.22,SSE,167,8.1,8.1,100,0.00,OVC,,0.00,51.0,WeatherDisplay:10.37,2013-02-20 10:43:00,
2013-02-20 10:48:00,43.3,43.3,30.22,South,179,6.9,6.9,100,0.00,OVC,,0.00,51.0,WeatherDisplay:10.37,2013-02-20 10:48:00,
2013-02-20 10:53:00,43.3,43.3,30.22,SSW,193,3.5,0.0,100,0.00,OVC,,0.00,55.0,WeatherDisplay:10.37,2013-02-20 10:53:00,
2013-02-20 10:59:00,43.5,43.5,30.22,South,191,3.5,3.5,100,0.00,OVC,,0.00,60.0,WeatherDisplay:10.37,2013-02-20 10:59:00,
2013-02-20 11:04:00,43.5,43.5,30.22,SSW,193,1.0,0.0,100,0.00,OVC,,0.00,60.0,WeatherDisplay:10.37,2013-02-20 11:04:00,
2013-02-20 11:09:00,43.5,43.5,30.22,SE,145,3.5,3.5,100,0.00,OVC,,0.00,53.0,WeatherDisplay:10.37,2013-02-20 11:09:00,
2013-02-20 11:14:00,43.6,43.6,30.22,SE,143,4.6,4.6,100,0.00,OVC,,0.00,53.0,WeatherDisplay:10.37,2013-02-20 11:14:00,
2013-02-20 11:20:00,43.5,43.5,30.22,South,186,3.5,3.5,100,0.00,OVC,,0.00,53.0,WeatherDisplay:10.37,2013-02-20 11:20:00,
2013-02-20 11:25:00,43.3,43.3,30.22,South,181,8.1,8.1,100,0.00,OVC,,0.00,53.0,WeatherDisplay:10.37,2013-02-20 11:25:00,
2013-02-20 11:30:00,43.2,43.2,30.23,South,184,9.2,9.2,100,0.00,OVC,,0.00,58.0,WeatherDisplay:10.37,2013-02-20 11:30:00,
2013-02-20 11:35:00,43.2,43.2,30.23,SSE,150,6.0,6.0,100,0.00,OVC,,0.00,58.0,WeatherDisplay:10.37,2013-02-20 11:35:00,
2013-02-20 11:40:00,43.2,43.2,30.23,SSE,157,10.0,10.0,100,0.00,OVC,,0.00,58.0,WeatherDisplay:10.37,2013-02-20 11:40:00,
2013-02-20 11:45:00,43.1,43.1,30.23,South,175,8.1,8.1,100,0.00,OVC,,0.00,56.0,WeatherDisplay:10.37,2013-02-20 11:45:00,
2013-02-20 11:50:00,43.1,43.1,30.23,SE,141,8.1,8.1,100,0.00,OVC,,0.00,60.0,WeatherDisplay:10.37,2013-02-20 11:50:00,
2013-02-20 11:55:00,43.1,42.8,30.23,ESE,121,6.0,6.0,99,0.00,OVC,,0.00,58.0,WeatherDisplay:10.37,2013-02-20 11:55:00,
2013-02-20 12:01:00,43.1,42.8,30.24,South,172,4.6,4.6,99,0.00,OVC,,0.00,56.0,WeatherDisplay:10.37,2013-02-20 12:01:00,
2013-02-20 12:06:00,43.1,42.8,30.24,SE,126,5.8,5.8,99,0.00,OVC,,0.00,51.0,WeatherDisplay:10.37,2013-02-20 12:06:00,
2013-02-20 12:11:00,43.1,42.8,30.24,South,182,4.6,4.6,99,0.00,OVC,,0.00,51.0,WeatherDisplay:10.37,2013-02-20 12:11:00,
2013-02-20 12:16:00,43.1,42.8,30.24,South,169,5.8,5.8,99,0.00,OVC,,0.00,55.0,WeatherDisplay:10.37,2013-02-20 12:16:00,
2013-02-20 12:21:00,43.1,42.8,30.24,SSW,202,5.8,5.8,99,0.00,OVC,,0.00,60.0,WeatherDisplay:10.37,2013-02-20 12:21:00,
2013-02-20 12:26:00,43.1,42.8,30.24,NW,309,6.9,6.9,99,0.00,OVC,,0.00,62.0,WeatherDisplay:10.37,2013-02-20 12:26:00,
2013-02-20 12:32:00,43.1,42.8,30.24,SSW,195,8.1,8.1,99,0.00,OVC,,0.00,60.0,WeatherDisplay:10.37,2013-02-20 12:32:00,
2013-02-20 12:37:00,43.1,42.8,30.24,SSW,203,3.5,3.5,99,0.00,OVC,,0.00,67.0,WeatherDisplay:10.37,2013-02-20 12:37:00,
2013-02-20 12:42:00,43.1,42.6,30.24,SSW,202,6.9,6.9,98,0.00,OVC,,0.00,69.0,WeatherDisplay:10.37,2013-02-20 12:42:00,
2013-02-20 12:47:00,43.1,42.6,30.24,WSW,250,5.8,5.8,98,0.00,OVC,,0.00,67.0,WeatherDisplay:10.37,2013-02-20 12:47:00,
2013-02-20 12:52:00,43.2,42.7,30.24,SSE,151,5.8,5.8,98,0.00,OVC,,0.00,67.0,WeatherDisplay:10.37,2013-02-20 12:52:00,
2013-02-20 12:57:00,43.2,42.7,30.24,South,182,6.0,6.0,98,0.00,OVC,,0.00,74.0,WeatherDisplay:10.37,2013-02-20 12:57:00,
2013-02-20 13:02:00,43.2,42.4,30.24,South,172,9.2,9.2,97,0.00,OVC,,0.00,72.0,WeatherDisplay:10.37,2013-02-20 13:02:00,
2013-02-20 13:07:00,43.2,42.4,30.24,South,179,8.0,8.0,97,0.00,OVC,,0.00,77.0,WeatherDisplay:10.37,2013-02-20 13:07:00,
2013-02-20 13:12:00,43.1,42.0,30.24,South,178,11.5,11.5,96,0.00,OVC,,0.00,74.0,WeatherDisplay:10.37,2013-02-20 13:12:00,
2013-02-20 13:17:00,43.2,42.1,30.24,South,186,5.8,5.8,96,0.00,OVC,,0.00,65.0,WeatherDisplay:10.37,2013-02-20 13:17:00,
2013-02-20 13:22:00,43.2,42.1,30.24,SSE,150,9.2,9.2,96,0.00,OVC,,0.00,69.0,WeatherDisplay:10.37,2013-02-20 13:22:00,
2013-02-20 13:27:00,43.2,42.1,30.24,SE,141,11.5,11.5,96,0.00,OVC,,0.00,76.0,WeatherDisplay:10.37,2013-02-20 13:27:00,
2013-02-20 13:32:00,43.2,42.1,30.24,SSW,199,5.8,5.8,96,0.00,OVC,,0.00,72.0,WeatherDisplay:10.37,2013-02-20 13:32:00,
2013-02-20 13:37:00,43.3,42.2,30.24,SSW,193,3.5,3.5,96,0.00,OVC,,0.00,63.0,WeatherDisplay:10.37,2013-02-20 13:37:00,
2013-02-20 13:42:00,43.3,42.2,30.24,SE,126,5.8,5.8,96,0.00,OVC,,0.00,67.0,WeatherDisplay:10.37,2013-02-20 13:42:00,
2013-02-20 13:47:00,43.3,42.2,30.24,SSW,196,6.9,6.9,96,0.00,OVC,,0.00,83.0,WeatherDisplay:10.37,2013-02-20 13:47:00,
2013-02-20 13:52:00,43.5,42.4,30.24,South,184,5.0,5.0,96,0.00,OVC,,0.00,86.0,WeatherDisplay:10.37,2013-02-20 13:52:00,
2013-02-20 13:58:00,43.5,42.4,30.24,SSW,192,5.8,5.8,96,0.00,OVC,,0.00,77.0,WeatherDisplay:10.37,2013-02-20 13:58:00,
2013-02-20 14:03:00,43.6,42.5,30.24,SE,137,5.8,5.8,96,0.00,OVC,,0.00,72.0,WeatherDisplay:10.37,2013-02-20 14:03:00,
2013-02-20 14:08:00,43.6,42.5,30.24,SE,138,5.8,5.8,96,0.00,OVC,,0.00,62.0,WeatherDisplay:10.37,2013-02-20 14:08:00,
2013-02-20 14:13:00,43.3,42.2,30.24,South,171,10.4,10.4,96,0.00,OVC,,0.00,69.0,WeatherDisplay:10.37,2013-02-20 14:13:00,
2013-02-20 14:18:00,43.2,42.1,30.24,SE,134,10.4,10.4,96,0.00,OVC,,0.00,72.0,WeatherDisplay:10.37,2013-02-20 14:18:00,
2013-02-20 14:23:00,43.1,42.3,30.24,South,175,6.9,6.9,97,0.00,OVC,,0.00,69.0,WeatherDisplay:10.37,2013-02-20 14:23:00,
2013-02-20 14:28:00,43.1,42.3,30.24,SE,136,5.8,5.8,97,0.00,OVC,,0.00,67.0,WeatherDisplay:10.37,2013-02-20 14:28:00,
2013-02-20 14:33:00,42.9,42.1,30.24,SSE,155,5.8,5.8,97,0.00,OVC,,0.00,70.0,WeatherDisplay:10.37,2013-02-20 14:33:00,
2013-02-20 14:38:00,42.9,42.1,30.24,SSE,155,8.1,8.1,97,0.00,OVC,,0.00,62.0,WeatherDisplay:10.37,2013-02-20 14:38:00,
2013-02-20 14:44:00,42.8,42.0,30.24,South,169,9.2,9.2,97,0.00,OVC,,0.00,56.0,WeatherDisplay:10.37,2013-02-20 14:44:00,
2013-02-20 14:49:00,42.8,42.0,30.24,SSW,198,10.4,10.4,97,0.00,OVC,,0.00,51.0,WeatherDisplay:10.37,2013-02-20 14:49:00,
2013-02-20 14:54:00,42.6,41.8,30.24,SSE,155,6.9,6.9,97,0.00,OVC,,0.00,53.0,WeatherDisplay:10.37,2013-02-20 14:54:00,
2013-02-20 14:59:00,42.6,41.8,30.24,South,185,9.2,9.2,97,0.00,OVC,,0.00,46.0,WeatherDisplay:10.37,2013-02-20 14:59:00,
2013-02-20 15:04:00,42.5,41.7,30.24,SE,134,8.1,8.1,97,0.00,OVC,,0.00,51.0,WeatherDisplay:10.37,2013-02-20 15:04:00,
2013-02-20 15:09:00,42.5,41.7,30.24,SE,137,6.0,6.0,97,0.00,OVC,,0.00,48.0,WeatherDisplay:10.37,2013-02-20 15:09:00,
2013-02-20 15:14:00,42.5,41.7,30.24,SSE,155,6.9,6.9,97,0.00,OVC,,0.00,42.0,WeatherDisplay:10.37,2013-02-20 15:14:00,
2013-02-20 15:19:00,42.5,41.7,30.24,South,188,6.0,6.0,97,0.00,OVC,,0.00,44.0,WeatherDisplay:10.37,2013-02-20 15:19:00,
2013-02-20 15:25:00,42.5,41.7,30.24,SSE,165,5.8,5.8,97,0.00,OVC,,0.00,49.0,WeatherDisplay:10.37,2013-02-20 15:25:00,
2013-02-20 15:30:00,42.5,41.7,30.24,SE,133,5.8,5.8,97,0.00,OVC,,0.00,48.0,WeatherDisplay:10.37,2013-02-20 15:30:00,
2013-02-20 15:35:00,42.5,41.7,30.24,SSE,154,6.0,6.0,97,0.00,OVC,,0.00,51.0,WeatherDisplay:10.37,2013-02-20 15:35:00,
2013-02-20 15:40:00,42.5,41.7,30.24,SE,140,5.8,5.8,97,0.00,OVC,,0.00,46.0,WeatherDisplay:10.37,2013-02-20 15:40:00,
2013-02-20 15:45:00,42.5,41.7,30.24,SSE,151,4.6,4.6,97,0.00,OVC,,0.00,46.0,WeatherDisplay:10.37,2013-02-20 15:45:00,
2013-02-20 15:50:00,42.5,41.7,30.24,SE,138,5.0,5.1,97,0.00,OVC,,0.00,39.0,WeatherDisplay:10.37,2013-02-20 15:50:00,
2013-02-20 15:56:00,42.3,41.5,30.24,SE,145,6.9,6.9,97,0.00,OVC,,0.00,37.0,WeatherDisplay:10.37,2013-02-20 15:56:00,
2013-02-20 16:01:00,42.3,41.5,30.24,SE,134,5.8,5.8,97,0.00,OVC,,0.00,37.0,WeatherDisplay:10.37,2013-02-20 16:01:00,
2013-02-20 16:06:00,42.3,41.5,30.24,SSE,167,6.9,6.9,97,0.00,OVC,,0.00,35.0,WeatherDisplay:10.37,2013-02-20 16:06:00,
2013-02-20 16:11:00,42.3,41.5,30.24,South,181,10.0,10.0,97,0.00,OVC,,0.00,33.0,WeatherDisplay:10.37,2013-02-20 16:11:00,
2013-02-20 16:16:00,42.3,41.2,30.24,SSE,161,8.1,8.1,96,0.00,OVC,,0.00,28.0,WeatherDisplay:10.37,2013-02-20 16:16:00,
2013-02-20 16:21:00,42.2,41.1,30.24,SE,141,11.5,11.5,96,0.00,OVC,,0.00,25.0,WeatherDisplay:10.37,2013-02-20 16:21:00,
2013-02-20 16:27:00,42.1,41.0,30.24,SE,145,11.5,11.5,96,0.00,OVC,,0.00,26.0,WeatherDisplay:10.37,2013-02-20 16:27:00,
2013-02-20 16:32:00,42.1,41.0,30.24,South,181,10.4,10.4,96,0.00,OVC,,0.00,21.0,WeatherDisplay:10.37,2013-02-20 16:32:00,
2013-02-20 16:37:00,41.9,40.8,30.24,South,191,6.9,6.9,96,0.00,OVC,,0.00,19.0,WeatherDisplay:10.37,2013-02-20 16:37:00,
2013-02-20 16:42:00,41.9,40.8,30.24,South,184,6.0,6.0,96,0.00,OVC,,0.00,16.0,WeatherDisplay:10.37,2013-02-20 16:42:00,
2013-02-20 16:47:00,41.8,40.7,30.24,SSE,165,5.8,5.8,96,0.00,OVC,,0.00,14.0,WeatherDisplay:10.37,2013-02-20 16:47:00,
2013-02-20 16:52:00,41.8,40.7,30.25,South,186,4.0,4.0,96,0.00,OVC,,0.00,12.0,WeatherDisplay:10.37,2013-02-20 16:52:00,
2013-02-20 16:57:00,41.8,40.7,30.25,SE,133,3.5,3.5,96,0.00,OVC,,0.00,11.0,WeatherDisplay:10.37,2013-02-20 16:57:00,
2013-02-20 17:03:00,41.6,40.5,30.25,South,178,10.4,10.4,96,0.00,OVC,,0.00,9.0,WeatherDisplay:10.37,2013-02-20 17:03:00,
2013-02-20 17:08:00,41.5,40.4,30.25,South,185,5.8,5.8,96,0.00,BKN,,0.00,9.0,WeatherDisplay:10.37,2013-02-20 17:08:00,
2013-02-20 17:13:00,41.5,40.4,30.25,SSE,148,2.3,2.3,96,0.00,SCT,,0.00,7.0,WeatherDisplay:10.37,2013-02-20 17:13:00,
2013-02-20 17:18:00,41.5,40.4,30.25,South,188,3.5,3.5,96,0.00,CLR,,0.00,5.0,WeatherDisplay:10.37,2013-02-20 17:18:00,
2013-02-20 17:24:00,41.3,40.2,30.25,South,179,5.8,5.8,96,0.00,OVC,,0.00,5.0,WeatherDisplay:10.37,2013-02-20 17:24:00,
2013-02-20 17:29:00,41.3,40.2,30.25,SSW,192,2.3,2.3,96,0.00,OVC,,0.00,5.0,WeatherDisplay:10.37,2013-02-20 17:29:00,
2013-02-20 17:34:00,41.3,40.2,30.25,North,0,3.5,3.5,96,0.00,OVC,,0.00,0.0,WeatherDisplay:10.37,2013-02-20 17:34:00,
2013-02-20 17:39:00,41.3,40.2,30.25,South,189,4.6,4.6,96,0.00,OVC,,0.00,0.0,WeatherDisplay:10.37,2013-02-20 17:39:00,
2013-02-20 17:44:00,41.2,40.1,30.25,South,176,4.0,4.0,96,0.00,OVC,,0.00,0.0,WeatherDisplay:10.37,2013-02-20 17:44:00,
2013-02-20 17:49:00,41.2,40.1,30.25,South,186,3.5,3.5,96,0.00,OVC,,0.00,0.0,WeatherDisplay:10.37,2013-02-20 17:49:00,
2013-02-20 17:54:00,41.1,40.0,30.25,South,191,5.8,5.8,96,0.00,OVC,,0.00,0.0,WeatherDisplay:10.37,2013-02-20 17:54:00,
2013-02-20 17:59:00,41.1,40.0,30.25,South,191,5.0,5.0,96,0.00,OVC,,0.00,0.0,WeatherDisplay:10.37,2013-02-20 17:59:00,
2013-02-20 18:04:00,40.9,39.8,30.25,South,186,5.8,5.8,96,0.00,CLR,,0.00,0.0,WeatherDisplay:10.37,2013-02-20 18:04:00,
2013-02-20 18:10:00,40.9,39.6,30.25,South,186,8.1,8.1,95,0.00,CLR,,0.00,0.0,WeatherDisplay:10.37,2013-02-20 18:10:00,
2013-02-20 18:15:00,40.9,39.6,30.25,North,0,3.5,3.5,95,0.00,CLR,,0.00,0.0,WeatherDisplay:10.37,2013-02-20 18:15:00,
2013-02-20 18:20:00,40.9,39.6,30.25,North,353,3.5,3.5,95,0.00,CLR,,0.00,0.0,WeatherDisplay:10.37,2013-02-20 18:20:00,
2013-02-20 18:25:00,40.8,39.5,30.25,NNW,347,3.5,3.5,95,0.00,CLR,,0.00,0.0,WeatherDisplay:10.37,2013-02-20 18:25:00,
2013-02-20 18:30:00,40.8,39.5,30.25,SSW,211,2.0,6.0,95,0.00,CLR,,0.00,0.0,WeatherDisplay:10.37,2013-02-20 18:30:00,
2013-02-20 18:35:00,40.6,39.3,30.25,SSW,193,2.3,2.3,95,0.00,CLR,,0.00,0.0,WeatherDisplay:10.37,2013-02-20 18:35:00,
2013-02-20 18:40:00,40.5,39.2,30.25,South,191,6.9,6.9,95,0.00,CLR,,0.00,0.0,WeatherDisplay:10.37,2013-02-20 18:40:00,
2013-02-20 18:45:00,40.3,39.0,30.26,SSW,202,5.8,5.8,95,0.00,CLR,,0.00,0.0,WeatherDisplay:10.37,2013-02-20 18:45:00,
2013-02-20 18:50:00,40.2,38.9,30.26,South,171,4.6,4.6,95,0.00,CLR,,0.00,0.0,WeatherDisplay:10.37,2013-02-20 18:50:00,
2013-02-20 18:56:00,39.9,38.6,30.26,SSW,200,3.5,3.5,95,0.00,CLR,,0.00,0.0,WeatherDisplay:10.37,2013-02-20 18:56:00,
2013-02-20 19:01:00,39.6,38.3,30.26,SSW,195,5.8,5.8,95,0.00,CLR,,0.00,0.0,WeatherDisplay:10.37,2013-02-20 19:01:00,
2013-02-20 19:06:00,39.3,37.7,30.26,South,188,4.6,4.6,94,0.00,CLR,,0.00,0.0,WeatherDisplay:10.37,2013-02-20 19:06:00,
2013-02-20 19:11:00,39.1,37.5,30.26,South,186,3.5,3.5,94,0.00,CLR,,0.00,0.0,WeatherDisplay:10.37,2013-02-20 19:11:00,
2013-02-20 19:16:00,38.9,37.3,30.26,South,191,3.5,3.5,94,0.00,CLR,,0.00,0.0,WeatherDisplay:10.37,2013-02-20 19:16:00,
2013-02-20 19:21:00,38.6,37.3,30.26,SSW,209,3.0,3.0,95,0.00,CLR,,0.00,0.0,WeatherDisplay:10.37,2013-02-20 19:21:00,
2013-02-20 19:26:00,38.3,37.0,30.26,South,191,7.0,7.0,95,0.00,CLR,,0.00,0.0,WeatherDisplay:10.37,2013-02-20 19:26:00,
2013-02-20 19:31:00,38.2,36.9,30.26,SSE,154,6.9,6.9,95,0.00,CLR,,0.00,0.0,WeatherDisplay:10.37,2013-02-20 19:31:00,
2013-02-20 19:36:00,38.0,36.7,30.27,South,182,8.1,8.1,95,0.00,CLR,,0.00,0.0,WeatherDisplay:10.37,2013-02-20 19:36:00,
2013-02-20 19:41:00,37.9,36.6,30.27,West,271,6.9,6.9,95,0.00,CLR,,0.00,0.0,WeatherDisplay:10.37,2013-02-20 19:41:00,
2013-02-20 19:47:00,37.8,36.5,30.27,SE,145,3.5,3.5,95,0.00,CLR,,0.00,0.0,WeatherDisplay:10.37,2013-02-20 19:47:00,
2013-02-20 19:52:00,37.5,36.2,30.27,ESE,123,4.6,4.6,95,0.00,CLR,,0.00,0.0,WeatherDisplay:10.37,2013-02-20 19:52:00,
2013-02-20 19:57:00,37.3,36.0,30.27,SE,140,4.6,4.6,95,0.00,CLR,,0.00,0.0,WeatherDisplay:10.37,2013-02-20 19:57:00,
2013-02-20 20:02:00,37.2,35.9,30.27,South,189,4.6,4.6,95,0.00,CLR,,0.00,0.0,WeatherDisplay:10.37,2013-02-20 20:02:00,
2013-02-20 20:07:00,37.0,35.7,30.27,SE,130,5.8,5.8,95,0.00,CLR,,0.00,0.0,WeatherDisplay:10.37,2013-02-20 20:07:00,
2013-02-20 20:12:00,36.9,35.6,30.27,South,181,2.3,2.3,95,0.00,CLR,,0.00,0.0,WeatherDisplay:10.37,2013-02-20 20:12:00,
2013-02-20 20:17:00,36.9,35.6,30.27,SE,141,8.1,8.1,95,0.00,CLR,,0.00,0.0,WeatherDisplay:10.37,2013-02-20 20:17:00,
2013-02-20 20:22:00,36.8,35.8,30.27,SSE,150,8.1,8.1,96,0.00,CLR,,0.00,0.0,WeatherDisplay:10.37,2013-02-20 20:22:00,
2013-02-20 20:27:00,36.6,35.6,30.27,SSE,148,5.8,5.8,96,0.00,CLR,,0.00,0.0,WeatherDisplay:10.37,2013-02-20 20:27:00,
2013-02-20 20:32:00,36.5,35.5,30.27,SSW,196,5.8,5.8,96,0.00,CLR,,0.00,0.0,WeatherDisplay:10.37,2013-02-20 20:32:00,
2013-02-20 20:38:00,36.3,35.3,30.27,South,174,8.1,8.1,96,0.00,CLR,,0.00,0.0,WeatherDisplay:10.37,2013-02-20 20:38:00,
2013-02-20 20:43:00,36.2,35.2,30.27,SSE,152,5.8,5.8,96,0.00,CLR,,0.00,0.0,WeatherDisplay:10.37,2013-02-20 20:43:00,
2013-02-20 20:48:00,36.2,35.2,30.27,SE,128,5.8,5.8,96,0.00,CLR,,0.00,0.0,WeatherDisplay:10.37,2013-02-20 20:48:00,
2013-02-20 20:53:00,36.0,35.0,30.27,SSE,148,5.8,5.8,96,0.00,CLR,,0.00,0.0,WeatherDisplay:10.37,2013-02-20 20:53:00,
2013-02-20 20:58:00,35.9,34.9,30.27,SSE,150,4.6,4.6,96,0.00,CLR,,0.00,0.0,WeatherDisplay:10.37,2013-02-20 20:58:00,
2013-02-20 21:03:00,35.6,34.6,30.27,SE,143,3.5,3.5,96,0.00,CLR,,0.00,0.0,WeatherDisplay:10.37,2013-02-20 21:03:00,
2013-02-20 21:08:00,35.5,34.7,30.27,SSE,157,3.5,3.5,97,0.00,CLR,,0.00,0.0,WeatherDisplay:10.37,2013-02-20 21:08:00,
2013-02-20 21:13:00,35.5,34.7,30.27,South,182,7.0,7.0,97,0.00,CLR,,0.00,0.0,WeatherDisplay:10.37,2013-02-20 21:13:00,
2013-02-20 21:19:00,35.3,34.5,30.27,South,175,5.8,5.8,97,0.00,CLR,,0.00,0.0,WeatherDisplay:10.37,2013-02-20 21:19:00,
2013-02-20 21:24:00,35.3,34.5,30.27,SE,136,5.8,5.8,97,0.00,CLR,,0.00,0.0,WeatherDisplay:10.37,2013-02-20 21:24:00,
2013-02-20 21:29:00,35.2,34.4,30.27,SE,136,4.6,4.6,97,0.00,CLR,,0.00,0.0,WeatherDisplay:10.37,2013-02-20 21:29:00,
2013-02-20 21:34:00,35.0,34.2,30.27,SE,137,3.5,3.5,97,0.00,CLR,,0.00,0.0,WeatherDisplay:10.37,2013-02-20 21:34:00,
2013-02-20 21:39:00,34.9,34.1,30.27,SE,144,4.6,4.6,97,0.00,CLR,,0.00,0.0,WeatherDisplay:10.37,2013-02-20 21:39:00,
2013-02-20 21:44:00,34.7,33.9,30.27,SE,138,3.5,3.5,97,0.00,CLR,,0.00,0.0,WeatherDisplay:10.37,2013-02-20 21:44:00,
2013-02-20 21:49:00,34.6,34.1,30.27,SSE,150,4.6,4.6,98,0.00,CLR,,0.00,0.0,WeatherDisplay:10.37,2013-02-20 21:49:00,
2013-02-20 21:55:00,34.4,33.9,30.27,SE,140,3.5,3.5,98,0.00,CLR,,0.00,0.0,WeatherDisplay:10.37,2013-02-20 21:55:00,
2013-02-20 22:00:00,34.3,33.8,30.27,SE,128,3.5,3.5,98,0.00,CLR,,0.00,0.0,WeatherDisplay:10.37,2013-02-20 22:00:00,
2013-02-20 22:05:00,34.1,33.6,30.27,SE,145,2.3,2.3,98,0.00,CLR,,0.00,0.0,WeatherDisplay:10.37,2013-02-20 22:05:00,
2013-02-20 22:10:00,34.0,33.5,30.27,SSE,152,1.2,1.2,98,0.00,CLR,,0.00,0.0,WeatherDisplay:10.37,2013-02-20 22:10:00,
2013-02-20 22:15:00,33.8,33.3,30.28,SE,131,3.5,3.5,98,0.00,CLR,,0.00,0.0,WeatherDisplay:10.37,2013-02-20 22:15:00,
2013-02-20 22:20:00,33.7,33.2,30.27,SE,144,3.5,3.5,98,0.00,CLR,,0.00,0.0,WeatherDisplay:10.37,2013-02-20 22:20:00,
2013-02-20 22:25:00,33.5,33.0,30.27,SE,134,2.3,2.3,98,0.00,CLR,,0.00,0.0,WeatherDisplay:10.37,2013-02-20 22:25:00,
2013-02-20 22:30:00,33.4,32.9,30.27,SE,133,4.6,4.6,98,0.00,CLR,,0.00,0.0,WeatherDisplay:10.37,2013-02-20 22:30:00,
2013-02-20 22:35:00,33.4,33.1,30.27,SE,126,6.9,6.9,99,0.00,,,0.00,0.0,WeatherDisplay:10.37,2013-02-20 22:35:00,
2013-02-20 22:40:00,33.4,33.1,30.28,SSE,151,4.6,4.6,99,0.00,,,0.00,0.0,WeatherDisplay:10.37,2013-02-20 22:40:00,
2013-02-20 22:46:00,33.4,33.1,30.28,SSE,160,6.0,6.0,99,0.00,,,0.00,0.0,WeatherDisplay:10.37,2013-02-20 22:46:00,
2013-02-20 22:51:00,33.4,33.1,30.28,SSE,158,5.8,5.8,99,0.00,,,0.00,0.0,WeatherDisplay:10.37,2013-02-20 22:51:00,
2013-02-20 22:56:00,33.5,33.2,30.28,SE,138,5.8,5.8,99,0.00,,,0.00,0.0,WeatherDisplay:10.37,2013-02-20 22:56:00,
2013-02-20 23:01:00,33.4,33.1,30.28,SE,134,3.5,3.5,99,0.00,,,0.00,0.0,WeatherDisplay:10.37,2013-02-20 23:01:00,
2013-02-20 23:06:00,33.4,33.1,30.28,SE,138,4.6,4.6,99,0.00,,,0.00,0.0,WeatherDisplay:10.37,2013-02-20 23:06:00,
2013-02-20 23:11:00,33.2,33.0,30.28,SE,131,3.5,3.5,99,0.00,,,0.00,0.0,WeatherDisplay:10.37,2013-02-20 23:11:00,
2013-02-20 23:16:00,33.1,32.9,30.28,SE,145,3.5,3.5,99,0.00,,,0.00,0.0,WeatherDisplay:10.37,2013-02-20 23:16:00,
2013-02-20 23:21:00,33.1,32.9,30.28,SE,128,3.5,3.5,99,0.00,,,0.00,0.0,WeatherDisplay:10.37,2013-02-20 23:21:00,
2013-02-20 23:27:00,32.8,32.6,30.28,SE,133,3.5,3.5,99,0.00,,,0.00,0.0,WeatherDisplay:10.37,2013-02-20 23:27:00,
2013-02-20 23:32:00,32.8,32.6,30.28,ESE,123,2.3,2.3,99,0.00,,,0.00,0.0,WeatherDisplay:10.37,2013-02-20 23:32:00,
2013-02-20 23:37:00,32.7,32.5,30.28,SE,127,3.5,3.5,99,0.00,,,0.00,0.0,WeatherDisplay:10.37,2013-02-20 23:37:00,
2013-02-20 23:42:00,32.7,32.5,30.29,SE,126,2.0,2.0,99,0.00,,,0.00,0.0,WeatherDisplay:10.37,2013-02-20 23:42:00,
2013-02-20 23:47:00,32.5,32.3,30.29,SE,127,0.0,0.0,99,0.00,,,0.00,0.0,WeatherDisplay:10.37,2013-02-20 23:47:00,
2013-02-20 23:52:00,32.4,32.2,30.29,SE,126,1.2,0.0,99,0.00,,,0.00,0.0,WeatherDisplay:10.37,2013-02-20 23:52:00,
2013-02-20 23:58:00,32.2,32.0,30.29,SE,127,0.0,0.0,99,0.00,,,0.00,0.0,WeatherDisplay:10.37,2013-02-20 23:58:00,